Location: ??
(35.1715°N, 139.6450°E)
Time: 10:43:27
(UTC+00:00)

USA 229 DEB - Pass Details

Date: 05 August 2024
Orbit: 881 x 1330 km, 63.4° (Epoch: 31 August)

Event Time Altitude Azimuth Distance (km) Brightness Sun altitude
Rises 19:13:43 0° 324° (NW) 4,086 6.7 -8.4°
Reaches altitude 10° 19:16:25 10° 321° (NW) 3,176 6.1 -7.9°
Maximum altitude 19:23:59 58° 244° (WSW) 1,475 4.2 -6.5°
Drops below altitude 10° 19:32:00 10° 168° (SSE) 3,350 6.2 -5.0°
Sets 19:34:55 0° 165° (SSE) 4,324 6.8 -4.5°
